This is the latest recevied weather packets stored in our database for station/object KT2UU-13. If no packets are shown the sender has not sent any weather packets the latest 10 day(s).
| Time | Temp. | Humidity | Pressure | Rain* | Wind** | Luminosity | Snow |
|---|---|---|---|---|---|---|---|
| 1778122151 | 17.22° C | 99% | 1014.3 hPa | 0 mm | - | - | - |
| 1778121848 | 17.22° C | 99% | 1014.3 hPa | 0 mm | - | - | - |
| 1778121543 | 17.22° C | 99% | 1014.3 hPa | 0 mm | - | - | - |
| 1778121240 | 17.22° C | 99% | 1014.2 hPa | 0 mm | - | - | - |
| 1778120938 | 17.22° C | 99% | 1014.1 hPa | 0 mm | - | - | - |
| 1778120634 | 17.22° C | 99% | 1014.7 hPa | 0 mm | - | - | - |
| 1778120330 | 17.22° C | 99% | 1014.3 hPa | 0 mm | - | - | - |
| 1778120025 | 17.22° C | 99% | 1014 hPa | 0 mm | - | - | - |
| 1778119724 | 17.22° C | 99% | 1014.1 hPa | 0 mm | - | - | - |
| 1778119420 | 17.22° C | 99% | 1014 hPa | 0 mm | - | - | - |
| 1778119117 | 17.22° C | 99% | 1014.5 hPa | 0 mm | - | - | - |
| 1778118815 | 17.22° C | 99% | 1014.2 hPa | 1.78 mm | - | - | - |
| 1778118512 | 17.22° C | 99% | 1013.9 hPa | 1.78 mm | - | - | - |
| 1778118208 | 17.22° C | 99% | 1013.9 hPa | 3.05 mm | - | - | - |
| 1778117905 | 17.22° C | 99% | 1013.9 hPa | 3.05 mm | - | - | - |
| 1778117602 | 17.22° C | 99% | 1014.2 hPa | 1.27 mm | - | - | - |
| 1778117299 | 17.22° C | 99% | 1014.1 hPa | 7.11 mm | - | - | - |
| 1778116994 | 17.22° C | 99% | 1014.3 hPa | 9.65 mm | - | - | - |
| 1778116687 | 17.22° C | 99% | 1014.3 hPa | 10.67 mm | - | - | - |
| 1778116383 | 17.22° C | 99% | 1014.6 hPa | 13.72 mm | - | - | - |
| 1778116083 | 17.22° C | 99% | 1013.9 hPa | 7.11 mm | - | - | - |
| 1778115779 | 17.22° C | 99% | 1014.2 hPa | 3.56 mm | - | - | - |
| 1778115476 | 17.22° C | 99% | 1014.5 hPa | 3.05 mm | - | - | - |
| 1778115172 | 17.22° C | 99% | 1014.7 hPa | 1.27 mm | - | - | - |
| 1778114869 | 17.22° C | 99% | 1014.6 hPa | 1.78 mm | - | - | - |
* Rain latest hour (hover to see other rain measurements)
** Current wind speed in m/s (hover to see current wind gust speed)